Home > Weather > Eberswalde > Past weeks

Flag for Germany Past Weather in Eberswalde, Brandenburg, Germany — Yesterday and Last 2 Weeks

Now
79 °F

Passing clouds.


Feels Like: 80 °F
Forecast: 62 / 75 °F
Wind: 5 mph from East

Location: Berlin-Tegel

Current Time: Jun 25, 2016 at 9:02:51 AM

Latest Report: Jun 25, 2016 at 8:20 AM


Visibility: N/A

Pressure: 29.86 "Hg

Humidity: 58%

Dew Point: 63 °F

Location of EberswaldeLocation

Past Weather in Eberswalde — Graph

°F

Eberswalde Temperature Yesterday

Maximum temperature yesterday: 95 °F (at 3:50 PM)
Minimum temperature yesterday: 70 °F (at 4:50 AM)
Average temperature yesterday: 83 °F

High & Low Weather Summary for the Past Weeks

 TemperatureHumidityPressure
High95 °F (Jun 24, 3:50 PM)94% (Jun 14, 2:20 AM)30.24 "Hg (Jun 14, 2:20 AM)
Low48 °F (Jun 20, 4:50 AM)20% (Jun 11, 5:50 PM)29.47 "Hg (Jun 14, 4:20 PM)
Average66 °F65%29.87 "Hg
* Reported Jun 10 7:20 AM — Jun 25 7:50 AM, Eberswalde, Weather by CustomWeather, © 2016

Note: Actual official high and low records may vary slightly from our data, if they occured in-between our weather recording intervals... More about our weather records

Advertising

Eberswalde Weather History for the Previous 24 Hours

Scroll right to see more
 ConditionsComfort  
Time TempWeatherWind HumidityBarometerVisibility
7:50 AM
Sat, Jun 25
77 °FPassing clouds.3 mph61%29.86 "HgN/A
7:20 AM75 °FPassing clouds.3 mph65%29.89 "HgN/A
6:50 AM73 °FPassing clouds.3 mph69%29.89 "HgN/A
6:20 AM72 °FPassing clouds.3 mph69%29.89 "HgN/A
5:50 AM70 °FPassing clouds.3 mph73%29.89 "HgN/A
5:20 AM70 °FPassing clouds.3 mph73%29.89 "HgN/A
4:50 AM70 °FPassing clouds.5 mph73%29.89 "HgN/A
4:20 AM70 °FPassing clouds.3 mph73%29.92 "HgN/A
3:50 AM70 °FPassing clouds.5 mph73%29.92 "HgN/A
3:20 AM72 °FPassing clouds.5 mph69%29.92 "HgN/A
2:50 AM72 °FPassing clouds.5 mph69%29.92 "HgN/A
2:20 AM72 °FPassing clouds.5 mph69%29.95 "HgN/A
1:50 AM73 °FPassing clouds.6 mph65%29.95 "HgN/A
1:20 AM73 °FPassing clouds.7 mph69%29.95 "HgN/A
12:50 AM75 °FPassing clouds.9 mph65%29.95 "HgN/A
12:20 AM75 °FPassing clouds.6 mph65%29.98 "HgN/A
11:50 PM
Fri, Jun 24
77 °FPassing clouds.7 mph65%29.98 "HgN/A
11:20 PM75 °FPassing clouds.6 mph65%29.98 "HgN/A
10:50 PM75 °FPassing clouds.5 mph65%29.98 "HgN/A
10:20 PM75 °FPassing clouds.8 mph65%29.98 "HgN/A
9:50 PM77 °FPassing clouds.7 mph57%29.98 "HgN/A
9:20 PM79 °FPassing clouds.14 mph54%29.98 "HgN/A
8:50 PM88 °FPassing clouds.5 mph29%29.95 "HgN/A
8:20 PM90 °FSunny.6 mph27%29.95 "Hg10 mi
7:50 PM91 °FSunny.7 mph26%29.95 "Hg10 mi
7:20 PM93 °FPassing clouds.5 mph26%29.95 "HgN/A
6:50 PM93 °FSunny.8 mph26%29.95 "Hg10 mi
6:20 PM95 °FPassing clouds.6 mph25%29.95 "HgN/A
5:50 PM95 °FPassing clouds.6 mph25%29.95 "HgN/A
5:20 PM95 °FPassing clouds.7 mph25%29.95 "HgN/A
4:50 PM95 °FPassing clouds.7 mph25%29.95 "HgN/A
4:20 PM95 °FPassing clouds.9 mph23%29.98 "HgN/A
3:50 PM95 °FPassing clouds.6 mph25%29.98 "HgN/A
3:20 PM93 °FSunny.3 mph28%29.98 "Hg10 mi
2:50 PM93 °FPassing clouds.7 mph30%29.98 "HgN/A
2:20 PM93 °FSunny.3 mph32%30.01 "Hg10 mi
1:50 PM91 °FSunny.6 mph36%30.01 "Hg10 mi
1:20 PM91 °FPassing clouds.8 mph36%30.01 "HgN/A
12:50 PM91 °FSunny.6 mph36%30.04 "Hg10 mi
12:20 PM90 °FPassing clouds.6 mph38%30.04 "HgN/A
11:50 AM88 °FPassing clouds.7 mph40%30.04 "HgN/A
11:20 AM88 °FPassing clouds.6 mph46%30.04 "HgN/A
10:50 AM86 °FPassing clouds.7 mph49%30.04 "HgN/A
10:20 AM84 °FPassing clouds.7 mph48%30.04 "HgN/A
9:50 AM82 °FSunny.6 mph51%30.04 "Hg10 mi
9:20 AM81 °FSunny.8 mph54%30.04 "Hg10 mi
Weather by CustomWeather, © 2016

See weather overviewHow to use our weather pages